Mayo, Yukon Territory

7:11 AM PDT on October 23, 2017 (GMT -0700)
Mayo

Weather History for CYMA - March, 2013

Change the Weather History Date:

Thursday, March 21, 2013

  Actual Average Record
Temperature  
Mean Temperature -12 °F -  
Max Temperature 10 °F 38 °F 46 °F (2006)
Min Temperature -34 °F 15 °F -34 °F (2013)
Degree Days  
Heating Degree Days 77    
Moisture  
Dew Point -24 °F    
Average Humidity 60    
Maximum Humidity 76    
Minimum Humidity 29    
Precipitation  
Precipitation 0.00 in 0.01 in - ()
Sea Level Pressure  
Sea Level Pressure 30.29 in    
Wind  
Wind Speed 1 mph ()    
Max Wind Speed 6 mph    
Max Gust Speed -    
Visibility 20.0 miles    
Events      
Averages and records for this station are not official NWS values.
T = Trace of Precipitation, MM = Missing Value Source: Averaged Metar Reports

Daily Weather History Graph

Daily Weather History Graph

Search for Another Location

Airport or City:

Trip Planner

Search our weather history database for the weather conditions in past years. The results will help you decide how hot, cold, wet, or windy it might be!

Date:

Astronomy

Mar. 21, 2013 Rise Set
Actual Time 7:59 AM PDT 8:23 PM PDT
Civil Twilight 7:12 AM PDT 9:10 PM PDT
Nautical Twilight 6:14 AM PDT 10:08 PM PDT
Astronomical Twilight 5:09 AM PDT 11:14 PM PDT
Moon 1:21 PM PDT (3/21) 6:08 AM PDT (3/21)
Length of Visible Light 13h 58m
Length of Day
12h 23m
Waxing Gibbous, 69% of the Moon is Illuminated
Mar 21
Waxing Gibbous
Mar 27
Full
Apr 2
Last Quarter
Apr 10
New
Apr 18
First Quarter

Hourly Weather History & Observations

Time (PDT) Temp. Windchill Dew Point Humidity Pressure Visibility Wind Dir Wind Speed Gust Speed Precip Events Conditions
12:00 AM -14.8 °F - -22.0 °F 70% 30.10 in 20.0 mi Calm Calm - N/A   Clear
1:00 AM -20.2 °F - -27.4 °F 69% 30.12 in 20.0 mi WNW 2.3 mph - N/A   Clear
2:00 AM -22.0 °F - -31.0 °F 63% 30.14 in 20.0 mi Calm Calm - N/A   Clear
3:00 AM -25.6 °F - -31.0 °F 76% 30.16 in 20.0 mi Calm Calm - N/A   Clear
4:00 AM -27.4 °F - -32.8 °F 75% 30.18 in 20.0 mi Calm Calm - N/A   Clear
5:00 AM -29.2 °F - -34.6 °F 75% 30.21 in 20.0 mi Calm Calm - N/A   Clear
6:00 AM -32.8 °F - -38.2 °F 75% 30.23 in 20.0 mi Calm Calm - N/A   Clear
7:00 AM -32.8 °F - -38.2 °F 75% 30.25 in 20.0 mi Calm Calm - N/A   Clear
8:00 AM -34.6 °F - -40.0 °F 75% 30.30 in 20.0 mi Calm Calm - N/A   Clear
9:00 AM -32.8 °F - -40.0 °F 68% 30.32 in 20.0 mi Calm Calm - N/A   Clear
10:00 AM -23.8 °F - -32.8 °F 63% 30.34 in 20.0 mi Calm Calm - N/A   Clear
11:00 AM -18.4 °F - -25.6 °F 70% 30.35 in 20.0 mi Calm Calm - N/A   Clear
1:00 PM -4.0 °F - -16.6 °F 55% 30.36 in 20.0 mi Calm Calm - N/A   Clear
2:00 PM -0.4 °F - -14.8 °F 51% 30.36 in 20.0 mi Calm Calm - N/A   Clear
3:00 PM 3.2 °F - -11.2 °F 51% 30.36 in 20.0 mi NE 2.3 mph - N/A   Clear
4:00 PM 5.0 °F -2.1 °F -16.6 °F 36% 30.36 in 20.0 mi NE 3.5 mph - N/A   Clear
5:00 PM 10.4 °F - -9.4 °F 41% 30.35 in 20.0 mi Calm Calm - N/A   Clear
6:00 PM 10.4 °F - -7.6 °F 44% 30.36 in 20.0 mi Calm Calm - N/A   Clear
7:00 PM 10.4 °F - -16.6 °F 29% 30.36 in 20.0 mi Calm Calm - N/A   Clear
8:00 PM 5.0 °F - -9.4 °F 52% 30.39 in 20.0 mi Calm Calm - N/A   Clear
10:00 PM -9.4 °F -20.9 °F -18.4 °F 65% 30.42 in 20.0 mi NNE 4.6 mph - N/A   Clear
11:00 PM -4.0 °F -16.3 °F -20.2 °F 46% 30.42 in 20.0 mi North 5.8 mph - N/A   Clear